1491933600.82,58615,15.13,73204.0,-9.75,-38.43,-39.59,0,*5E
1491933602.06,58616,15.13,73198.3,-9.73,-38.29,-39.47,0,*58
1491933603.28,58617,15.13,73200.3,-9.75,-38.11,-39.47,0,*54
1491933604.5,58618,15.13,73196.5,-9.75,-38.23,-39.47,0,*5A
1491933605.75,58619,15.13,73208.0,-9.73,-38.05,-39.29,0,*51
1491933607.0,58620,15.13,73214.5,-9.73,-38.05,-39.29,0,*5B
1491933608.25,58621,15.13,73204.0,-9.75,-38.11,-39.41,0,*57
1491933609.47,58622,15.13,73228.8,-9.75,-38.29,-39.47,0,*59
1491933610.7,58623,15.13,73214.5,-9.73,-37.75,-39.09,0,*52
1491933611.93,58624,15.06,73228.8,-9.75,-37.69,-39.09,0,*5E
1491933613.16,58625,15.06,73150.8,-9.75,-37.27,-38.29,0,*56
1491933614.4,58626,15.13,73198.0,-9.75,-37.27,-38.29,0,*55
1491933615.64,58627,15.06,73166.3,-9.73,-38.11,-39.47,0,*51
1491933616.86,58628,15.13,73166.8,-9.75,-38.11,-39.47,0,*58
1491933618.08,58629,15.13,73182.5,-9.75,-37.57,-39.03,0,*54
1491933619.36,58630,15.13,73178.8,-9.73,-37.51,-39.23,0,*5E
1491933620.59,58631,15.13,73204.5,-9.73,-37.15,-38.85,0,*52
1491933621.87,58632,15.13,73194.0,-9.73,-36.91,-38.23,0,*50
1491933623.15,58633,15.13,73216.0,-9.73,-37.09,-38.23,0,*51
1491933624.41,58634,15.13,73196.8,-9.73,-36.61,-37.87,0,*58
1491933625.67,58635,15.13,73170.3,-9.73,-37.45,-38.49,0,*53
1491933626.92,58636,15.13,73184.5,-9.73,-37.87,-39.23,0,*53
1491933628.17,58637,15.06,73182.3,-9.67,-37.99,-39.15,0,*5D
1491933629.42,58638,15.13,73190.0,-9.73,-38.05,-39.29,0,*52
1491933630.65,58639,15.13,73196.8,-9.73,-37.87,-39.09,0,*54
1491933631.89,58640,15.13,73202.5,-9.73,-37.87,-39.09,0,*5A
1491933633.14,58641,15.06,73210.8,-9.73,-38.05,-39.29,0,*5C
1491933634.39,58642,15.13,73216.3,-9.73,-38.05,-39.41,0,*51
1491933635.66,58643,15.13,73222.3,-9.73,-38.29,-39.41,0,*5E
1491933636.91,58644,15.06,73220.8,-9.75,-38.23,-39.41,0,*55
1491933638.15,58645,15.06,73220.5,-9.73,-38.23,-39.47,0,*54
1491933639.42,58646,15.13,73224.8,-9.73,-38.11,-39.29,0,*5E
1491933640.7,58647,15.06,73226.5,-9.73,-38.23,-39.41,0,*50
1491933641.94,58648,15.06,73224.5,-9.75,-38.11,-39.41,0,*58
1491933643.19,58649,15.06,73228.3,-9.75,-38.11,-39.41,0,*59
1491933644.44,58650,15.06,73224.3,-9.75,-37.93,-39.29,0,*5A
1491933645.69,58651,15.06,73226.3,-9.75,-37.69,-39.03,0,*56
1491933646.94,58652,15.06,73216.8,-9.75,-37.69,-39.03,0,*55
1491933648.14,58653,15.06,73214.5,-9.75,-37.45,-38.43,0,*5F
1491933649.37,58654,15.06,73218.3,-9.73,-37.33,-38.43,0,*5F
1491933650.63,58655,15.06,73220.5,-9.73,-37.87,-39.03,0,*54
1491933651.86,58656,15.06,73226.3,-9.75,-37.87,-39.23,0,*53
1491933653.13,58657,15.13,73240.3,-9.73,-37.93,-39.29,0,*5B
1491933654.41,58658,15.06,73238.5,-9.73,-37.93,-39.29,0,*54
1491933655.63,58659,15.06,73240.5,-9.75,-38.05,-39.29,0,*53
1491933656.86,58660,15.06,73242.3,-9.75,-37.93,-38.85,0,*5E
1491933658.09,58661,15.06,73240.0,-9.73,-37.57,-38.61,0,*5B
1491933659.37,58662,15.06,73246.5,-9.73,-37.69,-39.03,0,*50
1491933660.62,58663,15.06,73200.8,-9.75,-36.91,-37.93,0,*56
1491933661.9,58664,15.06,73216.5,-9.73,-37.09,-38.23,0,*53
1491933663.13,58665,15.06,73212.0,-9.73,-37.45,-38.61,0,*5C
1491933664.33,58666,15.13,73224.3,-9.71,-37.45,-38.55,0,*5A
1491933665.56,58667,15.06,73232.8,-9.71,-37.63,-38.85,0,*52
1491933666.79,58668,15.06,73234.8,-9.71,-37.81,-38.85,0,*51
1491933668.05,58669,15.06,73212.3,-9.71,-36.49,-37.39,0,*5D
1491933669.3,58670,15.06,73212.0,-9.65,-36.85,-37.93,0,*50
1491933670.51,58671,15.06,73202.8,-9.71,-37.45,-38.55,0,*5C
1491933671.73,58672,15.06,73210.0,-9.67,-37.99,-39.35,0,*5E
1491933672.95,58673,15.06,73216.8,-9.67,-37.51,-38.85,0,*51
1491933674.16,58674,15.06,73192.8,-9.67,-37.87,-38.97,0,*5E
1491933675.4,58675,15.06,73200.3,-9.67,-37.99,-39.23,0,*5E
1491933676.65,58676,15.06,73216.0,-9.71,-37.99,-39.15,0,*5F
1491933677.91,58677,15.06,73220.0,-9.67,-37.81,-39.15,0,*50
1491933679.16,58678,15.06,73220.3,-9.71,-37.63,-38.79,0,*5F
1491933680.42,58679,15.06,73220.3,-9.67,-37.63,-38.79,0,*59
1491933681.69,58680,15.06,73212.3,-9.65,-36.79,-37.81,0,*5F
1491933682.89,58681,15.06,73204.5,-9.63,-36.31,-37.33,0,*5D
1491933684.12,58682,15.06,73210.0,-9.63,-37.75,-38.91,0,*58
1491933685.37,58683,15.06,73222.0,-9.65,-37.63,-38.73,0,*54
1491933686.6,58684,15.06,73220.0,-9.65,-38.61,-39.91,0,*53
1491933687.87,58685,15.06,73190.8,-9.65,-38.91,-40.29,0,*50
1491933689.14,58686,15.06,73168.0,-9.67,-39.15,-40.41,0,*52
1491933690.38,58687,15.06,73212.5,-9.67,-38.67,-39.79,0,*52
1491933691.64,58688,15.06,73198.8,-9.71,-39.03,-40.21,0,*5A
1491933692.87,58689,15.06,73170.0,-9.71,-38.85,-39.97,0,*57
1491933694.11,58690,15.06,73194.3,-9.71,-38.67,-39.53,0,*5B
1491933695.3,58691,15.06,73200.8,-9.71,-38.05,-39.35,0,*5E
1491933696.52,58692,15.06,73224.3,-9.71,-38.35,-39.53,0,*5E
1491933697.74,58693,15.06,73212.3,-9.71,-38.17,-39.41,0,*5C
1491933698.93,58694,15.06,73226.5,-9.71,-38.05,-39.35,0,*5B
1491933700.12,58695,15.06,73232.3,-9.71,-38.17,-39.35,0,*59
1491933701.35,58696,15.06,73220.5,-9.71,-38.05,-39.23,0,*5E
1491933702.58,58697,15.06,73212.5,-9.71,-37.81,-38.85,0,*51
1491933703.83,58698,15.06,73222.5,-9.71,-37.51,-38.79,0,*50
1491933705.08,58699,15.06,73218.5,-9.71,-37.51,-38.79,0,*51
1491933706.34,58700,15.06,73216.3,-9.71,-37.51,-38.79,0,*50
1491933707.56,58701,15.06,73198.3,-9.71,-37.51,-38.85,0,*52
1491933708.77,58702,15.06,73194.0,-9.71,-37.87,-38.97,0,*59
1491933709.99,58703,15.06,73172.3,-9.71,-38.55,-39.59,0,*5B
1491933711.22,58704,15.06,73178.5,-9.71,-38.61,-39.71,0,*51
1491933712.47,58705,15.06,73128.0,-9.71,-38.67,-39.79,0,*5E
1491933713.7,58706,15.06,73066.8,-9.71,-38.79,-39.85,0,*51
1491933714.93,58707,15.06,73144.3,-9.71,-38.43,-39.59,0,*58
1491933716.17,58708,15.06,73148.5,-9.71,-38.23,-39.41,0,*58
1491933717.43,58709,15.06,73150.5,-9.73,-38.49,-39.65,0,*51
1491933718.68,58710,15.06,73188.3,-9.73,-38.29,-39.47,0,*5F
1491933719.96,58711,15.06,73186.5,-9.73,-38.29,-39.59,0,*51
1491933721.2,58712,15.06,73184.8,-9.73,-38.11,-39.47,0,*56
1491933722.48,58713,15.06,73198.3,-9.73,-38.23,-39.41,0,*50
1491933723.72,58714,15.06,73228.3,-9.73,-38.23,-39.47,0,*51
1491933724.97,58715,15.06,73238.3,-9.73,-37.75,-38.67,0,*5F
1491933726.2,58716,15.06,73188.0,-9.73,-35.59,-36.73,0,*5B
1491933727.47,58717,15.06,73166.8,-9.73,-38.11,-39.23,0,*51
1491933728.69,58718,15.06,73192.3,-9.71,-36.73,-37.69,0,*56
1491933729.92,58719,15.06,73150.3,-9.65,-37.15,-38.17,0,*55
1491933731.17,58720,15.06,73130.5,-9.65,-37.75,-38.91,0,*57
1491933732.46,58721,15.06,73144.8,-9.65,-37.81,-38.91,0,*5D
1491933733.71,58722,15.06,73190.5,-9.65,-37.93,-39.09,0,*5D
1491933734.96,58723,15.06,73174.3,-9.65,-38.29,-39.35,0,*5D
1491933736.16,58724,15.06,73150.0,-9.67,-38.85,-40.03,0,*55
1491933737.42,58725,15.06,73138.5,-9.67,-38.79,-39.79,0,*54
1491933738.67,58726,15.06,73158.3,-9.71,-38.79,-39.79,0,*50
1491933739.9,58727,15.06,73142.3,-9.67,-39.03,-40.35,0,*5C
1491933741.1,58728,15.06,73160.3,-9.71,-38.61,-39.85,0,*54
1491933742.35,58729,15.06,73164.8,-9.71,-38.67,-39.79,0,*50
1491933743.58,58730,15.06,73190.5,-9.71,-38.61,-39.59,0,*5C
1491933744.82,58731,15.06,73196.5,-9.71,-38.23,-39.41,0,*52
1491933746.05,58732,15.06,73206.8,-9.73,-37.87,-38.85,0,*5B
1491933747.29,58733,15.06,73220.8,-9.73,-37.87,-39.09,0,*5F
1491933748.54,58734,15.06,73214.8,-9.73,-37.09,-38.05,0,*53
1491933749.77,58735,15.06,73176.3,-9.67,-36.67,-37.81,0,*5D
1491933750.99,58736,15.06,73124.5,-9.67,-38.23,-39.35,0,*51
1491933752.2,58737,15.06,73126.5,-9.71,-38.35,-39.41,0,*53
1491933753.43,58738,15.06,73154.5,-9.71,-38.61,-39.71,0,*5E
1491933754.65,58739,15.06,73178.0,-9.67,-38.55,-39.53,0,*5F
1491933755.87,58740,15.06,73166.8,-9.71,-38.43,-39.53,0,*51
1491933757.1,58741,15.06,73148.3,-9.71,-38.43,-39.59,0,*5A
1491933758.33,58742,15.06,73166.5,-9.71,-38.79,-40.03,0,*51
1491933759.56,58743,15.06,73142.5,-9.71,-39.15,-40.35,0,*5E
1491933760.81,58744,15.06,73106.5,-9.71,-38.79,-39.97,0,*54
1491933762.06,58745,15.06,73198.0,-9.71,-38.79,-39.97,0,*55
1491933763.35,58746,15.06,73186.3,-9.73,-38.91,-40.09,0,*5B
1491933764.58,58747,15.06,73194.0,-9.73,-38.85,-39.85,0,*55
1491933765.8,58748,15.06,73176.3,-9.73,-38.73,-39.85,0,*53
1491933767.03,58749,15.06,73178.5,-9.75,-38.67,-39.65,0,*5F
1491933768.24,58750,15.06,73182.3,-9.75,-38.85,-39.91,0,*50
1491933769.46,58751,15.06,73186.8,-9.75,-38.49,-39.47,0,*5A
1491933770.72,58752,15.06,73196.0,-9.75,-38.29,-39.41,0,*59
1491933771.97,58753,15.06,73210.5,-9.75,-38.29,-39.41,0,*58
1491933773.21,58754,15.06,73196.0,-9.75,-38.11,-39.29,0,*5A
1491933774.42,58755,15.06,73148.0,-9.75,-37.87,-38.85,0,*5C
1491933775.67,58756,15.06,73164.8,-9.73,-38.43,-39.41,0,*57
1491933776.95,58757,15.06,73166.3,-9.73,-38.29,-39.41,0,*5A
1491933778.2,58758,15.06,73180.0,-9.75,-38.29,-39.41,0,*53
1491933779.45,58759,15.06,73190.0,-9.75,-38.29,-39.41,0,*52
1491933780.65,58760,15.06,73190.5,-9.75,-38.43,-39.47,0,*52
1491933781.87,58761,15.06,73218.3,-9.75,-38.67,-39.85,0,*5B
1491933783.1,58762,15.06,73214.0,-9.75,-38.73,-39.79,0,*5E
1491933784.36,58763,15.06,73198.8,-9.75,-38.49,-39.79,0,*56
1491933785.6,58764,15.06,73188.8,-9.77,-38.55,-39.65,0,*53
1491933786.86,58765,15.06,73160.8,-9.77,-38.79,-39.91,0,*57
1491933788.09,58766,15.06,73182.8,-9.79,-38.67,-39.65,0,*5E
1491933789.32,58767,15.06,73190.8,-9.79,-38.49,-39.47,0,*53
1491933790.57,58768,15.06,73170.3,-9.77,-37.57,-38.67,0,*51
1491933791.77,58769,15.06,73168.0,-9.79,-38.35,-39.47,0,*56
1491933793.03,58770,15.06,73180.5,-9.77,-38.67,-39.65,0,*57
1491933794.26,58771,15.06,73182.5,-9.79,-39.15,-40.35,0,*57
1491933795.5,58772,15.06,73196.3,-9.79,-39.09,-40.09,0,*56
1491933796.75,58773,15.06,73228.8,-9.77,-38.67,-39.85,0,*5A
1491933797.98,58774,15.06,73182.3,-9.79,-38.97,-40.09,0,*56
1491933799.21,58775,15.06,73142.3,-9.79,-38.91,-39.85,0,*5B
1491933800.43,58776,15.06,73172.5,-9.79,-38.73,-39.97,0,*57
1491933801.66,58777,15.06,73162.0,-9.79,-38.97,-39.97,0,*5C
1491933802.91,58778,15.06,73226.3,-9.79,-38.91,-40.09,0,*5C
1491933804.14,58779,15.06,73206.3,-9.79,-38.97,-40.09,0,*5B
1491933805.4,58780,15.06,73152.5,-9.83,-39.91,-40.79,0,*58
1491933806.67,58781,15.06,73142.3,-9.83,-39.79,-40.91,0,*59
1491933807.95,58782,15.06,73132.8,-9.83,-39.59,-40.79,0,*5E
1491933809.21,58783,15.06,73144.0,-9.85,-39.29,-40.41,0,*55
1491933810.47,58784,15.06,73192.3,-9.85,-39.03,-40.09,0,*56
1491933811.73,58785,15.06,73156.8,-9.85,-38.79,-39.79,0,*52
1491933812.99,58786,15.06,73156.8,-9.85,-38.91,-39.97,0,*57
1491933814.21,58787,15.06,73182.8,-9.85,-38.91,-39.85,0,*55
1491933815.44,58788,15.06,73172.5,-9.85,-39.03,-40.03,0,*50
1491933816.7,58789,15.06,73164.3,-9.85,-39.03,-40.09,0,*5B
1491933817.94,58790,15.06,73192.8,-9.85,-38.79,-39.65,0,*5B
1491933819.18,58791,15.06,73200.8,-9.85,-39.09,-40.09,0,*58
1491933820.46,58792,15.06,73194.0,-9.87,-38.91,-40.09,0,*59
1491933821.74,58793,15.06,73174.0,-9.87,-38.29,-39.41,0,*59
1491933822.96,58794,15.06,73146.0,-9.85,-38.49,-39.47,0,*5C
1491933824.2,58795,15.06,73174.0,-9.87,-38.61,-39.65,0,*55
1491933825.43,58796,15.06,73194.3,-9.85,-38.67,-39.65,0,*52
1491933826.66,58797,15.06,73204.5,-9.85,-38.67,-39.65,0,*53
1491933827.94,58798,15.06,73206.0,-9.87,-38.79,-39.79,0,*5C
1491933829.22,58799,15.06,73158.5,-9.87,-39.03,-40.21,0,*52
1491933830.51,58800,15.06,73174.8,-9.87,-39.97,-40.97,0,*5D
1491933831.79,58801,15.0,73164.0,-9.87,-39.03,-40.09,0,*56
1491933833.02,58802,15.06,73172.0,-9.87,-38.85,-39.85,0,*50
1491933834.23,58803,15.06,73142.0,-9.89,-38.85,-39.85,0,*5F
1491933835.46,58804,15.06,73162.0,-9.89,-38.73,-39.71,0,*5A
1491933836.7,58805,15.06,73162.3,-9.89,-38.85,-39.71,0,*52
1491933837.95,58806,15.06,73178.5,-9.91,-38.73,-39.71,0,*51
1491933839.21,58807,15.06,73182.8,-9.91,-38.55,-39.71,0,*54
1491933840.42,58808,15.06,73192.3,-9.89,-38.55,-39.65,0,*57
1491933841.65,58809,15.06,73198.3,-9.89,-38.55,-39.53,0,*53
1491933842.88,58810,15.0,73190.0,-9.89,-38.49,-39.47,0,*53
1491933844.13,58811,15.06,73198.5,-9.89,-38.49,-39.53,0,*57
1491933845.36,58812,15.06,73174.3,-9.89,-38.49,-39.47,0,*51
1491933846.59,58813,15.06,73174.8,-9.89,-38.67,-39.65,0,*5C
1491933847.84,58814,15.0,73178.8,-9.91,-38.55,-39.53,0,*56
1491933849.1,58815,15.06,73180.5,-9.91,-38.49,-39.47,0,*5F
1491933850.33,58816,15.06,73184.8,-9.91,-38.55,-39.65,0,*51
1491933851.59,58817,15.06,73192.3,-9.89,-38.49,-39.53,0,*51
1491933852.85,58818,15.0,73192.0,-9.91,-38.49,-39.65,0,*52
1491933854.08,58819,15.06,73196.0,-9.91,-38.55,-39.47,0,*5E
1491933855.33,58820,15.06,73192.0,-9.91,-38.49,-39.47,0,*59
1491933856.61,58821,15.0,73196.5,-9.91,-38.49,-39.53,0,*5D
1491933857.9,58822,15.06,73198.8,-9.91,-38.49,-39.53,0,*5E
1491933859.12,58823,15.0,73202.5,-9.89,-38.35,-39.53,0,*5D
1491933860.39,58824,15.0,73202.0,-9.91,-38.67,-39.53,0,*54
1491933861.67,58825,15.0,73206.3,-9.91,-37.99,-38.91,0,*54
1491933862.93,58826,15.0,73214.8,-9.91,-37.39,-38.17,0,*53
1491933864.2,58827,15.0,73188.8,-9.89,-37.21,-38.29,0,*5F
1491933865.46,58828,15.06,73174.8,-9.89,-37.99,-38.91,0,*50
1491933866.69,58829,15.06,73164.8,-9.89,-38.67,-39.65,0,*55
1491933867.92,58830,15.0,73162.0,-9.89,-38.73,-39.71,0,*5D
1491933869.14,58831,15.06,73174.8,-9.91,-38.97,-40.03,0,*54
1491933870.41,58832,15.0,73180.8,-9.91,-39.09,-40.09,0,*5B
1491933871.62,58833,15.06,73154.8,-9.89,-39.65,-40.73,0,*54
1491933872.85,58834,15.0,73162.0,-9.89,-39.35,-40.29,0,*59
1491933874.11,58835,15.0,73172.5,-9.95,-39.15,-40.15,0,*58
1491933875.4,58836,15.0,73196.0,-9.95,-39.15,-40.09,0,*56
1491933876.65,58837,15.0,73200.3,-9.95,-38.97,-39.97,0,*55
1491933877.92,58838,15.0,73200.5,-9.97,-38.79,-39.79,0,*58
1491933879.17,58839,15.0,73198.3,-9.95,-38.61,-39.59,0,*50
1491933880.43,58840,15.0,73198.8,-9.95,-38.61,-39.71,0,*54
1491933881.69,58841,15.0,73198.8,-9.95,-38.73,-39.71,0,*56
1491933882.97,58842,15.06,73208.0,-9.95,-38.79,-39.71,0,*5F
1491933884.25,58843,15.0,73202.8,-9.95,-38.79,-39.79,0,*56
1491933885.49,58844,15.0,73198.8,-9.97,-38.73,-39.71,0,*51
1491933886.74,58845,15.0,73204.0,-9.95,-38.05,-38.79,0,*5A
1491933888.0,58846,15.0,73210.5,-9.95,-38.05,-38.79,0,*59
1491933889.23,58847,15.0,73198.5,-9.95,-36.67,-37.57,0,*51
1491933890.49,58848,15.0,73178.8,-9.95,-37.75,-38.23,0,*50
1491933891.72,58849,15.0,73184.5,-9.91,-38.55,-39.65,0,*5B
1491933893.0,58850,15.0,73182.8,-9.91,-37.93,-38.67,0,*55
1491933894.24,58851,15.0,73186.8,-9.91,-36.97,-37.75,0,*5D
1491933895.45,58852,15.0,73172.3,-9.89,-38.35,-39.09,0,*54
1491933896.71,58853,15.0,73176.5,-9.91,-39.85,-40.85,0,*5C
1491933897.98,58854,15.0,73170.5,-9.91,-39.09,-40.09,0,*5B
1491933899.24,58855,15.0,73172.8,-9.95,-39.79,-40.73,0,*54
1491933900.54,58856,15.0,73194.8,-9.95,-39.59,-40.59,0,*5D
1491933901.83,58857,15.0,73196.0,-9.95,-39.59,-40.79,0,*5E
1491933903.03,58858,15.0,73178.3,-9.97,-39.35,-40.35,0,*51
1491933904.32,58859,15.0,73184.8,-9.99,-39.97,-40.97,0,*5E
1491933905.6,58860,15.0,73196.0,-10.01,-39.79,-40.79,0,*6D
1491933906.85,58861,15.0,73192.0,-9.99,-39.41,-40.47,0,*53
1491933908.1,58862,15.0,73200.3,-10.01,-38.79,-39.65,0,*6D
1491933909.36,58863,15.0,73198.3,-10.03,-38.17,-39.03,0,*66
1491933910.58,58864,15.0,73204.8,-10.01,-38.85,-39.85,0,*66
1491933911.82,58865,15.0,73196.3,-10.01,-38.61,-39.59,0,*6C
1491933913.06,58866,15.0,73198.0,-10.01,-38.11,-38.85,0,*68
1491933914.33,58867,15.0,73188.5,-10.01,-37.69,-38.49,0,*69
1491933915.59,58868,15.0,73188.3,-9.99,-38.61,-39.59,0,*58
1491933916.87,58869,15.0,73198.3,-9.99,-37.69,-38.49,0,*5E
1491933918.14,58870,15.0,73208.3,-9.99,-37.09,-37.87,0,*5D
1491933919.37,58871,15.0,73168.5,-9.99,-37.27,-37.27,0,*5A
1491933920.6,58872,15.0,73164.5,-9.97,-39.03,-40.35,0,*5C
1491933921.84,58873,15.0,73132.3,-9.97,-39.23,-40.53,0,*5F
1491933923.08,58874,15.0,73134.3,-10.01,-39.47,-40.21,0,*68
1491933924.35,58875,15.0,73168.5,-10.01,-39.03,-40.21,0,*69
1491933925.56,58876,15.0,73182.3,-10.01,-38.97,-40.03,0,*66
1491933926.79,58877,15.0,73180.0,-10.01,-39.29,-40.47,0,*63
1491933928.04,58878,15.0,73196.8,-10.03,-40.03,-41.03,0,*69
1491933929.26,58879,15.0,73176.5,-10.05,-39.91,-40.91,0,*61
1491933930.51,58880,15.0,73088.8,-10.05,-37.93,-38.35,0,*6A
1491933931.72,58881,15.0,73150.5,-10.05,-37.57,-37.57,0,*68
1491933932.96,58882,15.0,73158.0,-10.03,-37.33,-38.17,0,*64
1491933934.16,58883,15.0,73164.0,-10.05,-38.97,-40.15,0,*6F
1491933935.4,58884,15.0,73154.3,-10.05,-38.97,-39.97,0,*6C
1491933936.66,58885,15.0,73162.0,-10.07,-38.91,-39.91,0,*6F
1491933937.96,58886,15.0,73144.3,-10.07,-39.41,-40.41,0,*63
1491933939.19,58887,15.0,73172.5,-10.07,-38.97,-40.15,0,*69
1491933940.46,58888,15.0,73168.8,-10.07,-39.23,-40.15,0,*68
1491933941.72,58889,15.0,73176.0,-10.07,-39.41,-40.35,0,*6F
1491933943.01,58890,15.0,73178.8,-10.07,-39.23,-40.29,0,*6E
1491933944.23,58891,15.0,73174.8,-10.09,-39.09,-40.15,0,*66
1491933945.47,58892,15.0,73160.0,-10.09,-38.97,-39.97,0,*67
1491933946.72,58893,15.0,73164.3,-10.09,-39.09,-39.97,0,*60
1491933947.97,58894,15.0,73160.5,-10.09,-39.09,-39.97,0,*67
1491933949.21,58895,15.0,73140.3,-10.09,-38.73,-39.59,0,*68
1491933950.42,58896,15.0,73146.0,-10.09,-38.35,-39.35,0,*63
1491933951.65,58897,15.0,73146.8,-10.07,-38.35,-39.35,0,*6C
1491933952.94,58898,15.0,73138.5,-10.07,-39.23,-40.09,0,*64
1491933954.18,58899,15.0,73142.8,-10.09,-38.97,-40.09,0,*65
1491933955.43,58900,15.0,73146.0,-10.09,-39.23,-40.15,0,*67
1491933956.69,58901,15.0,73152.3,-10.13,-39.23,-40.15,0,*6D
1491933957.98,58902,15.0,73150.3,-10.13,-39.03,-39.97,0,*68
1491933959.21,58903,15.0,73158.0,-10.15,-38.97,-39.97,0,*63
1491933960.44,58904,15.0,73156.5,-10.15,-38.97,-39.97,0,*64
1491933961.73,58905,15.0,73162.3,-10.13,-39.03,-39.97,0,*6F
1491933962.99,58906,15.0,73158.0,-10.15,-39.23,-40.09,0,*61
1491933964.28,58907,14.94,73118.3,-10.13,-38.79,-39.79,0,*61
1491933965.57,58908,15.0,73126.3,-10.13,-38.67,-39.59,0,*63
1491933966.86,58909,15.0,73140.5,-10.13,-38.79,-39.79,0,*6F
1491933968.12,58910,15.0,73154.5,-10.13,-38.67,-39.85,0,*6B
1491933969.33,58911,15.0,73174.5,-10.15,-38.85,-40.03,0,*60
1491933970.56,58912,15.0,73170.3,-10.15,-39.03,-40.03,0,*6C
1491933971.8,58913,14.94,73164.5,-10.19,-38.91,-40.03,0,*6B
1491933973.03,58914,15.0,73164.3,-10.15,-38.91,-39.91,0,*65
1491933974.27,58915,15.0,73170.3,-10.19,-38.91,-39.91,0,*68
1491933975.56,58916,15.0,73134.0,-10.21,-38.79,-39.79,0,*60
1491933976.81,58917,15.0,73148.0,-10.19,-38.85,-39.71,0,*61
1491933978.1,58918,15.0,73144.3,-10.21,-38.79,-39.79,0,*6E
1491933979.32,58919,15.0,73148.8,-10.19,-38.85,-39.85,0,*64
1491933980.59,58920,15.0,73156.5,-10.21,-39.09,-40.09,0,*6A
1491933981.81,58921,14.94,73150.5,-10.19,-39.09,-40.03,0,*6A
1491933983.05,58922,15.0,73156.8,-10.19,-38.91,-39.91,0,*6C
1491933984.31,58923,15.0,73166.5,-10.21,-38.97,-40.09,0,*6F
1491933985.57,58924,14.94,73164.0,-10.21,-38.97,-39.79,0,*61
1491933986.86,58925,14.94,73150.5,-10.21,-38.79,-39.71,0,*68
1491933988.09,58926,14.94,73172.8,-10.21,-38.43,-39.35,0,*62
1491933989.36,58927,14.94,73160.8,-10.21,-38.43,-39.15,0,*61
1491933990.59,58928,15.0,73184.5,-10.19,-38.43,-39.29,0,*6A
1491933991.85,58929,14.94,73138.8,-10.19,-38.11,-38.91,0,*6E
1491933993.09,58930,14.94,73160.8,-10.21,-38.35,-38.97,0,*6D
1491933994.33,58931,14.94,73154.8,-10.19,-37.87,-38.67,0,*6E
1491933995.59,58932,14.94,73166.5,-10.21,-38.35,-39.15,0,*64
1491933996.8,58933,15.0,73188.0,-10.19,-38.35,-39.47,0,*69
1491933998.04,58934,14.94,73180.0,-10.19,-37.51,-38.17,0,*67
1491933999.28,58935,15.0,73152.0,-10.19,-37.51,-38.35,0,*66
1491934000.54,58936,14.94,73138.3,-10.15,-38.29,-39.03,0,*6D
1491934001.78,58937,14.94,73120.3,-10.13,-38.85,-39.85,0,*62
1491934003.01,58938,14.94,73150.3,-10.15,-38.73,-39.71,0,*69
1491934004.25,58939,14.94,73168.5,-10.15,-38.85,-39.71,0,*61
1491934005.5,58940,15.0,73160.5,-10.15,-38.67,-39.53,0,*63
1491934006.71,58941,14.94,73170.3,-10.19,-38.73,-39.65,0,*6E
1491934007.97,58942,15.0,73182.5,-10.19,-38.67,-39.71,0,*6D
1491934009.21,58943,14.94,73180.8,-10.19,-38.73,-39.71,0,*69
1491934010.45,58944,14.94,73170.3,-10.21,-38.43,-39.09,0,*69
1491934011.68,58945,14.94,73178.3,-10.19,-38.35,-39.23,0,*6A
1491934012.91,58946,14.94,73182.5,-10.19,-38.67,-39.47,0,*6C
1491934014.16,58947,14.94,73186.8,-10.19,-38.85,-39.71,0,*64
1491934015.39,58948,14.94,73188.5,-10.19,-38.73,-39.53,0,*62
1491934016.66,58949,14.94,73216.0,-10.19,-38.29,-38.91,0,*63
1491934017.9,58950,14.94,73162.8,-10.19,-37.93,-38.85,0,*60
1491934019.11,58951,14.94,73144.5,-10.15,-38.55,-39.65,0,*67
1491934020.32,58952,15.0,73174.3,-10.15,-38.73,-39.65,0,*60
1491934021.56,58953,14.94,73196.3,-10.15,-39.35,-40.41,0,*6A
1491934022.85,58954,14.94,73172.3,-10.21,-39.97,-40.97,0,*69
1491934024.14,58955,14.94,73132.5,-10.21,-39.41,-39.71,0,*65
1491934025.41,58956,14.94,73110.3,-10.21,-37.81,-38.97,0,*6D
1491934026.67,58957,14.94,73106.0,-10.21,-38.35,-38.91,0,*6A
1491934027.93,58958,14.94,73146.5,-10.25,-38.67,-40.15,0,*65
1491934029.2,58959,14.94,73166.3,-10.23,-39.41,-40.29,0,*68
1491934030.47,58960,14.94,73146.8,-10.25,-39.59,-40.35,0,*60
1491934031.74,58961,14.94,73156.8,-10.25,-39.35,-39.59,0,*6F
1491934033.03,58962,14.94,73092.5,-10.25,-38.79,-38.79,0,*66
1491934034.32,58963,14.94,73050.8,-10.25,-38.23,-38.49,0,*6B
1491934035.59,58964,14.94,73028.3,-10.27,-38.49,-39.79,0,*60
1491934036.8,58965,14.94,73118.3,-10.27,-38.85,-39.85,0,*62
1491934038.03,58966,14.94,73168.5,-10.27,-38.97,-39.79,0,*61
1491934039.27,58967,14.94,73162.0,-10.27,-39.03,-40.15,0,*68
1491934040.52,58968,14.94,73116.5,-10.27,-39.15,-40.15,0,*60
1491934041.79,58969,14.94,73150.8,-10.27,-39.15,-40.21,0,*66
1491934043.03,58970,14.94,73166.0,-10.27,-39.23,-40.15,0,*6C
1491934044.24,58971,14.94,73140.5,-10.27,-39.35,-40.15,0,*6A
1491934045.5,58972,14.94,73158.3,-10.27,-39.03,-39.97,0,*68
1491934046.77,58973,14.94,73164.5,-10.29,-39.03,-39.91,0,*61
1491934048.04,58974,14.94,73180.5,-10.29,-38.85,-39.71,0,*67
1491934049.33,58975,14.94,73154.3,-10.29,-38.11,-38.91,0,*64
1491934050.62,58976,14.94,73154.5,-10.29,-38.23,-39.03,0,*6C
1491934051.88,58977,14.94,73160.8,-10.29,-38.55,-39.29,0,*64
1491934053.17,58978,14.94,73164.5,-10.29,-38.49,-39.29,0,*66
1491934054.44,58979,14.94,73156.5,-10.29,-38.91,-39.85,0,*64
1491934055.68,58980,14.94,73162.8,-10.27,-38.79,-39.65,0,*64
1491934056.98,58981,14.94,73172.8,-10.29,-39.03,-40.09,0,*63
1491934058.25,58982,14.94,73160.8,-10.29,-38.29,-39.09,0,*67
1491934059.48,58983,14.94,73162.3,-10.27,-37.69,-38.61,0,*6C
1491934060.75,58984,14.94,73186.8,-10.29,-36.97,-37.69,0,*62
1491934062.03,58985,14.94,73180.8,-10.25,-35.53,-36.13,0,*68
1491934063.28,58986,14.94,73120.8,-10.23,-35.47,-35.95,0,*65
1491934064.52,58987,14.94,73118.3,-10.19,-37.69,-37.87,0,*62
1491934065.73,58988,14.94,73092.5,-10.19,-36.19,-36.97,0,*6B
1491934066.98,58989,14.94,73038.0,-10.19,-35.23,-36.55,0,*6E
1491934068.25,58990,14.94,73094.3,-10.19,-37.69,-38.29,0,*6F
1491934069.46,58991,14.94,73186.0,-10.19,-38.35,-39.09,0,*6B
1491934070.68,58992,14.94,73100.5,-10.15,-39.09,-39.91,0,*6B
1491934071.91,58993,14.94,73142.5,-10.15,-38.55,-39.53,0,*6C
1491934073.14,58994,14.94,73136.5,-10.15,-38.67,-39.09,0,*65
1491934074.38,58995,14.94,73140.3,-10.19,-38.67,-39.65,0,*62
1491934075.67,58996,14.94,73122.5,-10.21,-39.15,-40.09,0,*6A
1491934076.97,58997,14.94,73138.5,-10.21,-36.49,-37.99,0,*64
1491934078.23,58998,14.94,73118.8,-10.21,-37.39,-37.57,0,*6F
1491934079.49,58999,14.94,73126.3,-10.21,-38.35,-39.53,0,*67
1491934080.76,59000,14.94,73124.3,-10.21,-38.79,-39.91,0,*69
1491934082.02,59001,14.94,73140.8,-10.21,-38.91,-39.91,0,*6E
1491934083.26,59002,14.94,73144.5,-10.21,-38.73,-39.91,0,*61
1491934084.47,59003,14.94,73146.3,-10.23,-38.97,-39.91,0,*68
1491934085.7,59004,14.94,73164.8,-10.23,-38.97,-40.09,0,*60
1491934086.97,59005,14.94,73164.3,-10.25,-39.47,-40.41,0,*67
1491934088.22,59006,14.94,73152.3,-10.23,-40.09,-41.11,0,*62
1491934089.49,59007,14.94,73148.5,-10.25,-39.97,-41.03,0,*6F
1491934090.78,59008,14.94,73142.3,-10.29,-39.29,-40.09,0,*62
1491934092.02,59009,14.94,73138.5,-10.27,-39.35,-40.21,0,*6A
1491934093.28,59010,14.94,73120.0,-10.29,-38.55,-39.41,0,*63
1491934094.5,59011,14.94,73136.8,-10.27,-39.47,-40.53,0,*63
1491934095.76,59012,14.94,73122.3,-10.27,-39.03,-39.97,0,*66
1491934097.0,59013,14.94,73156.0,-10.27,-39.47,-40.21,0,*64
1491934098.24,59014,14.94,73108.0,-10.29,-38.55,-39.47,0,*61